FW3855 Weather Reports


Display with metric or nautical units.
time (UTC)temp
F
wind
direction
speed
MPH
gust
MPH
rain 1hr
in
rain 24hr
in
rain mn
in
humidity
%
barometer
mb
20260904095237 71 157 4.0 10.0 0.00 0.00 0.00 11 1015.8
20260904094740 71 103 5.0 11.0 0.00 0.00 0.00 12 1015.8
20260904093737 71 119 5.0 13.0 0.00 0.00 0.00 11 1015.8
20260904092739 73 98 5.0 18.0 0.00 0.00 0.00 16 1015.7
20260904092238 72 203 4.0 8.0 0.00 0.00 0.00 14 1015.7
20260904091739 71 103 4.0 10.0 0.00 0.00 0.00 16 1015.7
20260904091232 70 185 3.0 10.0 0.00 0.00 0.00 15 1015.7
20260904090728 70 110 3.0 7.0 0.00 0.00 0.00 12 1015.8
20260904090222 70 216 2.0 6.0 0.00 0.00 0.00 11 1015.8
20260904085715 70 157 2.0 6.0 0.00 0.00 0.00 11 1015.9
20260904085209 70 124 3.0 8.0 0.00 0.00 0.00 11 1015.8
20260904084703 70 114 3.0 12.0 0.00 0.00 0.00 10 1015.8
20260904084157 71 170 2.0 12.0 0.00 0.00 0.00 10 1015.8
20260904083651 71 96 2.0 8.0 0.00 0.00 0.00 10 1015.8
20260904083145 71 89 3.0 12.0 0.00 0.00 0.00 10 1015.8
20260904082639 71 208 5.0 15.0 0.00 0.00 0.00 10 1015.8
20260904082133 71 127 5.0 15.0 0.00 0.00 0.00 10 1015.8
20260904081627 71 107 5.0 11.0 0.00 0.00 0.00 11 1015.9
20260904080106 71 164 5.0 12.0 0.00 0.00 0.00 12 1016.0
20260904075605 71 177 5.0 15.0 0.00 0.00 0.00 12 1016.0
20260904075050 72 158 6.0 15.0 0.00 0.00 0.00 12 1016.0
20260904074544 72 110 6.0 15.0 0.00 0.00 0.00 13 1016.0
20260904074038 72 155 6.0 12.0 0.00 0.00 0.00 13 1016.1
20260904073532 72 222 6.0 14.0 0.00 0.00 0.00 13 1016.1
20260904073026 72 157 6.0 14.0 0.00 0.00 0.00 13 1016.0
20260904072521 72 115 5.0 14.0 0.00 0.00 0.00 14 1016.0
20260904072016 72 165 5.0 16.0 0.00 0.00 0.00 14 1015.9
20260904071515 72 195 4.0 16.0 0.00 0.00 0.00 15 1016.0
20260904071013 72 188 4.0 11.0 0.00 0.00 0.00 15 1015.9
20260904070514 73 212 5.0 11.0 0.00 0.00 0.00 16 1015.9
20260904070014 72 205 5.0 14.0 0.00 0.00 0.00 16 1015.9
20260904065509 73 153 4.0 14.0 0.00 0.00 0.00 17 1016.0
20260904065010 73 204 3.0 12.0 0.00 0.00 0.00 17 1015.9
20260904064509 73 91 4.0 11.0 0.00 0.00 0.00 18 1015.9
20260904063509 73 115 4.0 10.0 0.00 0.00 0.00 18 1015.9
20260904062509 73 98 4.0 11.0 0.00 0.00 0.00 19 1015.9
20260904062011 73 105 4.0 16.0 0.00 0.00 0.00 19 1015.8
20260904061509 73 89 5.0 16.0 0.00 0.00 0.00 19 1015.8
20260904061009 73 123 4.0 13.0 0.00 0.00 0.00 19 1015.7
20260904060509 73 145 4.0 13.0 0.00 0.00 0.00 20 1015.7
20260904060013 73 105 3.0 12.0 0.00 0.00 0.00 21 1015.7
20260904055507 73 136 3.0 9.0 0.00 0.00 0.00 23 1015.7
20260904055001 73 104 3.0 10.0 0.00 0.00 0.00 23 1015.7
20260904054455 73 172 2.0 10.0 0.00 0.00 0.00 24 1015.7
20260904053949 74 214 3.0 6.0 0.00 0.00 0.00 25 1015.7
20260904053444 74 210 4.0 10.0 0.00 0.00 0.00 26 1015.8
20260904051419 74 166 3.0 9.0 0.00 0.00 0.00 27 1015.8
20260904050913 74 205 3.0 9.0 0.00 0.00 0.00 27 1015.7
20260904050407 74 227 3.0 12.0 0.00 0.00 0.00 26 1015.8
20260904045355 74 203 2.0 9.0 0.00 0.00 0.00 26 1015.9
20260904044849 75 187 3.0 7.0 0.00 0.00 0.00 26 1015.9
20260904044345 75 152 2.0 9.0 0.00 0.00 0.00 26 1015.9
20260904043331 76 231 4.0 9.0 0.00 0.00 0.00 26 1015.9
20260904041307 76 165 4.0 14.0 0.00 0.00 0.00 30 1015.8
20260904040801 76 191 5.0 14.0 0.00 0.00 0.00 30 1015.8
20260904040255 76 174 4.0 11.0 0.00 0.00 0.00 29 1015.8
20260904035750 76 146 3.0 11.0 0.00 0.00 0.00 28 1015.8
20260904034227 76 162 4.0 11.0 0.00 0.00 0.00 26 1015.6
20260904033721 76 239 3.0 11.0 0.00 0.00 0.00 25 1015.6
20260904033218 76 197 3.0 11.0 0.00 0.00 0.00 25 1015.6
20260904032218 76 266 3.0 11.0 0.00 0.00 0.00 24 1015.4
20260904031717 76 204 3.0 8.0 0.00 0.00 0.00 23 1015.3
20260904031219 77 207 3.0 8.0 0.00 0.00 0.00 23 1015.3
20260904030716 77 143 3.0 8.0 0.00 0.00 0.00 23 1015.3
20260904030218 77 224 4.0 9.0 0.00 0.00 0.00 22 1015.3
20260904025717 77 160 2.0 9.0 0.00 0.00 0.00 22 1015.3
20260904025219 77 232 2.0 6.0 0.00 0.00 0.00 22 1015.3
20260904024215 77 206 3.0 8.0 0.00 0.00 0.00 21 1015.2
20260904023714 77 179 4.0 16.0 0.00 0.00 0.00 21 1015.2
20260904023213 78 193 4.0 16.0 0.00 0.00 0.00 20 1015.2
20260904022713 78 195 3.0 9.0 0.00 0.00 0.00 20 1015.2
20260904021714 78 209 4.0 10.0 0.00 0.00 0.00 19 1015.1
20260904021214 78 173 4.0 16.0 0.00 0.00 0.00 18 1015.1
20260904020708 78 146 4.0 16.0 0.00 0.00 0.00 18 1015.1
20260904020202 78 210 4.0 12.0 0.00 0.00 0.00 18 1015.2
20260904015702 79 174 4.0 12.0 0.00 0.00 0.00 18 1015.2
20260904014202 79 205 3.0 8.0 0.00 0.00 0.00 16 1015.2
20260904013702 80 180 6.0 18.0 0.00 0.00 0.00 16 1015.4
20260904012701 81 203 7.0 20.0 0.00 0.00 0.00 14 1015.2
20260904012158 82 145 5.0 15.0 0.00 0.00 0.00 14 1015.3
20260904011700 83 126 3.0 12.0 0.00 0.00 0.00 15 1015.2
20260904010658 83 217 4.0 12.0 0.00 0.00 0.00 14 1015.3
20260904010159 84 215 5.0 10.0 0.00 0.00 0.00 14 1015.3
20260904005656 84 268 5.0 16.0 0.00 0.00 0.00 14 1015.3
20260904005158 84 237 4.0 16.0 0.00 0.00 0.00 13 1015.2
20260904004655 84 240 4.0 14.0 0.00 0.00 0.00 14 1015.2
20260904004159 84 229 5.0 14.0 0.00 0.00 0.00 14 1015.3
20260904003656 85 200 6.0 13.0 0.00 0.00 0.00 14 1015.3
20260904003155 85 164 5.0 13.0 0.00 0.00 0.00 13 1015.2
20260904002656 85 218 5.0 12.0 0.00 0.00 0.00 14 1015.3
20260904002156 85 224 5.0 16.0 0.00 0.00 0.00 14 1015.2
20260904001655 85 200 5.0 16.0 0.00 0.00 0.00 13 1015.2
20260904001157 85 268 6.0 14.0 0.00 0.00 0.00 13 1015.2
20260904000151 85 192 6.0 17.0 0.00 0.00 0.00 14 1015.2
20260903235651 86 106 5.0 15.0 0.00 0.00 0.00 13 1015.2
20260903234650 86 155 5.0 12.0 0.00 0.00 0.00 14 1015.3
20260903234150 86 220 5.0 12.0 0.00 0.00 0.00 15 1015.4
20260903233652 86 179 4.0 12.0 0.00 0.00 0.00 15 1015.4
20260903233151 86 230 4.0 12.0 0.00 0.00 0.00 14 1015.3
20260903232652 86 76 6.0 17.0 0.00 0.00 0.00 13 1015.6
20260903232152 86 177 6.0 17.0 0.00 0.00 0.00 12 1015.7
20260903231652 86 219 6.0 17.0 0.00 0.00 0.00 14 1015.7
20260903231151 86 233 6.0 17.0 0.00 0.00 0.00 14 1015.7
20260903230650 86 117 7.0 14.0 0.00 0.00 0.00 13 1015.7
20260903230149 86 209 6.0 15.0 0.00 0.00 0.00 13 1015.7
20260903225650 86 180 6.0 15.0 0.00 0.00 0.00 13 1015.6
20260903225148 85 160 7.0 15.0 0.00 0.00 0.00 11 1015.8
20260903224648 86 141 7.0 15.0 0.00 0.00 0.00 10 1015.8
20260903224149 86 173 7.0 15.0 0.00 0.00 0.00 10 1015.9
20260903223650 86 135 6.0 14.0 0.00 0.00 0.00 9 1016.0
20260903222646 86 172 6.0 14.0 0.00 0.00 0.00 9 1016.1
20260903222146 86 82 5.0 16.0 0.00 0.00 0.00 9 1016.1
20260903221648 86 274 6.0 17.0 0.00 0.00 0.00 9 1016.2
20260903221144 86 203 7.0 19.0 0.00 0.00 0.00 9 1016.2
20260903220643 86 138 7.0 19.0 0.00 0.00 0.00 9 1016.2
20260903220142 86 147 7.0 18.0 0.00 0.00 0.00 9 1016.1
20260903215142 86 198 6.0 18.0 0.00 0.00 0.00 9 1016.2
20260903214640 86 134 7.0 15.0 0.00 0.00 0.00 9 1016.1
20260903214139 86 251 7.0 19.0 0.00 0.00 0.00 9 1016.4
20260903213636 86 158 7.0 19.0 0.00 0.00 0.00 9 1016.2
20260903213138 86 200 8.0 19.0 0.00 0.00 0.00 9 1016.4
20260903212636 86 255 8.0 25.0 0.00 0.00 0.00 10 1016.5
20260903212136 86 147 7.0 25.0 0.00 0.00 0.00 8 1016.4
20260903210625 86 352 5.0 14.0 0.00 0.00 0.00 11 1016.4
20260903210119 86 279 5.0 19.0 0.00 0.00 0.00 11 1016.2
20260903205107 85 231 9.0 19.0 0.00 0.00 0.00 12 1016.5
20260903204601 85 172 9.0 26.0 0.00 0.00 0.00 12 1016.4
20260903204055 85 240 9.0 26.0 0.00 0.00 0.00 13 1016.5
20260903203549 86 202 7.0 20.0 0.00 0.00 0.00 12 1016.6
20260903202537 86 179 7.0 18.0 0.00 0.00 0.00 12 1016.5
20260903202030 86 96 6.0 16.0 0.00 0.00 0.00 11 1016.5
20260903201017 86 209 7.0 22.0 0.00 0.00 0.00 9 1016.6
20260903200511 86 153 6.0 18.0 0.00 0.00 0.00 8 1016.7
20260903200005 87 146 5.0 16.0 0.00 0.00 0.00 8 1016.7
20260903194954 86 261 7.0 17.0 0.00 0.00 0.00 5 1016.9
20260903194447 85 245 8.0 17.0 0.00 0.00 0.00 5 1017.0
20260903193942 85 168 7.0 18.0 0.00 0.00 0.00 3 1016.9
20260903193435 85 252 6.0 18.0 0.00 0.00 0.00 2 1017.0
20260903192929 85 198 5.0 16.0 0.00 0.00 0.00 1 1016.9
20260903191411 84 149 7.0 18.0 0.00 0.00 0.00 2 1017.3
20260903190905 83 172 8.0 19.0 0.00 0.00 0.00 4 1017.2
20260903190358 83 211 8.0 19.0 0.00 0.00 0.00 4 1017.3
20260903185853 83 157 8.0 23.0 0.00 0.00 0.00 6 1017.5
20260903185347 83 132 7.0 23.0 0.00 0.00 0.00 6 1017.5
20260903184841 83 98 6.0 14.0 0.00 0.00 0.00 5 1017.6
20260903184335 83 150 6.0 22.0 0.00 0.00 0.00 5 1017.5
20260903183829 82 193 6.0 22.0 0.00 0.00 0.00 8 1017.6
20260903183323 82 166 5.0 17.0 0.00 0.00 0.00 7 1017.6
20260903182817 82 107 6.0 16.0 0.00 0.00 0.00 8 1017.6
20260903182311 82 153 6.0 19.0 0.00 0.00 0.00 9 1017.8
20260903181808 82 154 5.0 19.0 0.00 0.00 0.00 10 1017.7
20260903181259 81 89 6.0 17.0 0.00 0.00 0.00 10 1017.8
20260903180753 81 129 6.0 17.0 0.00 0.00 0.00 9 1017.7
20260903175741 81 252 6.0 16.0 0.00 0.00 0.00 10 1017.8
20260903174730 81 200 6.0 15.0 0.00 0.00 0.00 10 1017.8
20260903174223 80 209 7.0 15.0 0.00 0.00 0.00 10 1017.8
20260903173717 80 96 6.0 14.0 0.00 0.00 0.00 10 1017.8
20260903173211 80 82 5.0 14.0 0.00 0.00 0.00 9 1017.8
20260903172705 80 208 7.0 18.0 0.00 0.00 0.00 10 1018.0
20260903172159 80 53 7.0 18.0 0.00 0.00 0.00 9 1018.0
20260903171653 80 145 7.0 17.0 0.00 0.00 0.00 9 1018.0
20260903170641 80 114 5.0 17.0 0.00 0.00 0.00 9 1017.8
20260903170135 80 169 6.0 14.0 0.00 0.00 0.00 9 1017.8
20260903165629 79 165 7.0 15.0 0.00 0.00 0.00 9 1017.8
20260903165123 79 122 6.0 17.0 0.00 0.00 0.00 10 1017.8
20260903164111 79 101 6.0 17.0 0.00 0.00 0.00 10 1017.8
20260903163605 78 258 7.0 15.0 0.00 0.00 0.00 10 1017.8
20260903162553 78 148 7.0 17.0 0.00 0.00 0.00 10 1017.8
20260903161541 78 160 7.0 20.0 0.00 0.00 0.00 10 1018.0
20260903161035 77 120 5.0 20.0 0.00 0.00 0.00 10 1017.8
20260903160528 78 178 4.0 12.0 0.00 0.00 0.00 10 1018.0
20260903160023 77 203 5.0 18.0 0.00 0.00 0.00 10 1017.8
20260903155517 77 353 6.0 18.0 0.00 0.00 0.00 10 1017.8
20260903155011 76 119 5.0 13.0 0.00 0.00 0.00 12 1017.7
20260903154508 76 87 6.0 18.0 0.00 0.00 0.00 12 1017.7
20260903153508 75 145 5.0 17.0 0.00 0.00 0.00 12 1017.7
20260903153008 75 251 4.0 14.0 0.00 0.00 0.00 13 1017.7
20260903152508 75 323 3.0 16.0 0.00 0.00 0.00 13 1017.7
20260903152010 74 47 4.0 16.0 0.00 0.00 0.00 13 1017.8
20260903151506 74 95 3.0 13.0 0.00 0.00 0.00 12 1017.7
20260903151007 74 294 2.0 13.0 0.00 0.00 0.00 12 1017.8
20260903150507 74 130 2.0 8.0 0.00 0.00 0.00 11 1018.0
20260903150008 73 349 2.0 8.0 0.00 0.00 0.00 11 1017.8
20260903144505 72 225 4.0 13.0 0.00 0.00 0.00 10 1018.0
20260903144002 72 120 4.0 12.0 0.00 0.00 0.00 11 1017.8
20260903143502 72 0.0 0.0 0.00 0.00 0.00 11 1017.7
20260903143005 72 0.0 0.0 0.00 0.00 0.00 10 1017.5